Theta_e
366 365 365 364 363 363 363 363 363 364 365 362 361 359 357 357 360 361 360 360 360 357 356 358 361 362 362 361 361 363 364 364 365 364 364 363 362 362 361 361 360 359 357 354 353 352 352 349 347 347 349 347 346 347 346 345 345 343 343 342 341 341 341 342 348 350 345 342 340 340 342 342 341 341 340 340 340 340 340 339 338 337 337 337 338
367 365 365 364 363 362 362 363 362 364 364 361 359 358 359 358 359 360 360 359 360 359 356 356 357 362 364 362 361 362 362 363 364 364 363 364 364 362 361 360 360 360 359 356 354 353 353 351 349 347 349 349 347 347 347 346 345 345 344 342 342 342 341 342 345 347 346 345 342 339 339 341 341 340 339 339 342 342 341 341 340 340 338 338 340
367 366 366 365 363 363 364 364 363 363 363 361 359 357 359 360 358 359 361 360 359 359 358 357 356 358 363 363 363 361 361 362 362 362 364 365 364 363 361 360 360 361 361 359 356 354 354 353 351 348 347 349 349 347 347 346 346 346 345 343 342 343 342 342 343 345 345 345 344 341 339 338 340 340 340 339 340 341 342 343 342 343 341 340 341
369 368 367 366 364 364 365 366 366 364 364 363 361 357 357 360 360 359 359 360 360 359 359 359 357 358 360 363 363 361 360 361 361 362 362 363 364 364 363 360 360 361 361 360 357 355 355 354 353 351 348 349 350 348 347 347 346 346 346 343 343 343 344 343 344 344 344 345 344 343 342 341 339 339 340 340 340 340 342 342 342 342 342 341 341
369 369 368 367 366 365 365 366 367 366 364 363 362 359 357 359 361 360 360 359 360 361 360 360 360 360 360 361 363 362 361 360 360 361 362 362 364 364 363 361 360 361 361 360 359 357 356 355 355 353 350 349 350 349 347 346 346 346 346 345 343 343 344 345 344 343 344 345 344 343 344 343 341 339 339 340 341 341 341 341 341 341 341 340 340
368 370 370 368 367 366 365 365 366 367 364 362 361 360 358 358 360 361 362 360 359 360 361 361 361 362 362 361 362 363 362 361 360 361 361 362 363 364 364 362 360 360 361 360 359 358 357 356 355 354 353 350 350 349 348 347 346 345 346 346 344 343 344 346 345 344 344 345 345 344 344 344 342 341 340 339 340 342 342 341 341 341 341 340 340
368 369 371 368 367 367 364 363 365 366 363 361 360 359 358 357 358 361 363 363 361 360 361 363 361 362 363 362 362 362 362 361 360 361 361 363 363 364 365 363 361 361 361 361 360 359 358 357 356 355 354 352 351 350 349 348 346 345 346 346 345 344 344 345 347 347 346 345 345 345 345 344 344 343 343 342 341 341 342 342 342 342 342 342 341
367 369 370 369 366 366 366 364 363 364 363 361 361 360 359 357 357 358 362 365 364 360 360 363 363 363 363 363 364 363 363 362 362 361 361 363 363 364 365 365 363 362 362 362 362 361 359 357 357 356 355 354 352 350 350 349 347 346 346 346 346 346 345 346 346 347 348 347 346 345 344 345 345 343 344 343 342 342 341 342 343 343 343 343 342
366 368 370 369 367 366 366 365 363 363 363 362 361 360 360 358 358 358 360 363 365 363 361 361 363 365 363 364 365 365 363 363 362 363 362 362 363 364 364 366 365 364 363 363 363 362 360 358 358 358 356 355 354 352 350 349 348 347 346 346 346 347 347 347 347 347 347 348 348 347 345 345 345 344 345 344 344 343 342 342 343 343 344 345 344
365 367 370 370 367 365 366 365 364 363 363 363 361 361 360 360 358 359 359 361 363 365 363 359 361 365 366 365 366 366 366 364 363 362 362 362 362 363 363 364 365 364 363 363 363 363 362 360 359 359 359 358 355 354 352 350 349 347 346 346 346 346 347 348 348 348 347 348 348 347 347 345 345 344 345 345 344 344 344 344 344 344 344 345 346
364 366 369 370 368 367 366 367 366 364 363 362 363 362 360 360 360 359 359 359 360 363 364 361 359 361 365 366 367 368 367 365 364 362 361 360 360 361 362 363 365 363 363 362 362 363 362 361 360 360 360 359 358 356 354 352 350 349 347 346 345 345 346 347 348 348 348 348 348 347 346 346 345 344 344 345 345 344 345 345 345 345 345 345 345
366 365 368 369 369 368 368 368 368 367 365 363 363 362 362 360 360 360 359 358 359 361 364 364 360 358 363 367 368 368 367 367 365 364 361 360 358 360 360 362 364 364 363 361 361 361 362 362 361 359 359 359 359 358 357 354 352 350 349 348 346 345 344 345 346 347 347 348 348 347 346 345 344 344 343 344 344 344 345 346 346 346 345 345 344
367 366 368 370 370 369 369 370 370 369 367 364 363 363 363 361 360 360 360 359 359 359 363 365 364 361 360 364 368 369 368 367 366 365 364 362 359 360 360 360 362 363 363 361 360 359 360 360 361 360 358 359 359 359 358 356 354 352 351 349 348 346 345 344 343 344 345 346 347 347 345 344 344 344 343 343 343 343 345 346 346 346 345 345 344
368 369 368 371 372 371 370 371 372 370 368 365 363 364 364 363 361 360 360 361 361 361 363 364 365 364 361 362 365 368 369 369 369 368 366 364 361 361 360 361 361 361 362 363 361 359 358 359 360 359 357 357 358 359 359 357 356 354 352 350 349 348 347 346 344 343 344 345 346 347 345 344 344 344 343 343 342 343 344 345 346 346 345 344 343
369 370 370 372 373 372 373 374 374 373 370 367 365 365 365 366 365 362 361 361 362 363 363 364 365 366 365 363 363 365 368 370 370 369 368 366 364 362 360 360 361 362 363 363 362 361 359 358 359 359 358 357 357 358 358 358 357 355 353 352 350 349 349 347 346 345 344 344 345 346 345 344 343 343 343 343 343 342 343 344 345 345 344 344 343
368 371 370 372 373 374 374 375 376 375 374 370 369 367 367 369 367 365 363 362 362 363 364 364 365 365 366 365 364 364 364 366 369 370 369 367 366 363 362 361 362 363 363 363 363 362 361 360 359 359 358 356 356 357 358 358 357 356 353 352 351 350 349 349 348 347 346 345 344 345 346 345 343 343 343 343 343 341 342 343 344 344 344 345 343
367 371 372 371 373 375 375 377 377 375 374 373 371 369 369 370 370 368 365 364 365 365 366 365 365 365 365 366 367 365 364 365 366 368 369 370 367 365 364 363 362 362 362 363 363 363 363 362 361 360 360 358 356 355 357 358 358 357 355 353 352 351 350 349 349 348 347 345 344 343 344 344 344 344 343 343 343 342 343 344 344 345 345 345 344
367 371 372 371 372 374 377 377 377 375 376 376 374 372 371 371 371 370 368 367 366 366 368 367 366 367 367 367 367 367 365 365 364 364 367 369 369 368 365 364 364 363 363 362 362 363 364 365 364 362 361 361 358 357 356 357 358 358 356 354 352 351 351 350 350 348 348 347 345 343 343 344 344 344 344 343 343 343 343 344 344 344 345 343 343
365 370 372 370 370 373 375 378 377 376 376 377 376 374 372 371 372 372 370 367 366 366 368 369 369 368 368 367 368 368 367 367 366 364 366 366 368 368 366 364 364 364 363 363 362 362 363 364 365 365 363 361 361 359 358 357 357 358 357 355 354 353 352 351 350 349 348 347 346 344 343 342 342 343 343 343 342 342 342 343 344 343 343 341 341
364 368 371 371 370 372 375 376 376 376 376 377 376 374 372 372 372 372 371 370 368 367 366 368 370 370 370 369 368 367 367 368 367 367 366 365 366 367 366 365 365 365 365 364 363 363 363 363 364 365 365 364 362 361 360 359 358 357 357 356 355 354 352 351 350 350 349 347 346 344 343 342 341 341 341 341 342 343 342 343 343 343 341 340 339
364 366 371 371 371 373 374 375 375 375 376 376 374 373 373 372 372 372 372 371 369 367 366 367 367 368 369 369 370 369 369 368 368 368 368 367 366 365 365 364 364 365 365 364 364 364 363 362 363 363 364 365 364 362 361 360 359 358 357 357 355 354 353 352 351 351 349 347 346 344 343 342 341 341 340 340 341 342 342 342 342 341 339 338 337
363 366 370 372 373 373 374 374 375 375 374 375 374 373 372 373 372 371 372 371 371 370 368 367 366 366 367 368 368 370 370 369 369 368 368 368 368 366 365 365 365 366 366 365 365 364 364 363 363 362 362 363 364 364 363 362 361 359 358 357 356 355 353 352 351 351 350 348 346 345 343 342 341 341 341 341 340 341 341 341 340 338 337 337 337
365 366 368 371 373 373 373 374 374 374 374 374 374 373 373 373 372 372 372 371 372 371 370 370 368 367 367 366 367 367 368 369 369 368 368 368 367 367 366 365 365 364 364 365 365 364 364 364 363 363 362 362 362 364 363 363 362 360 359 358 356 355 354 353 352 351 349 348 346 345 344 343 342 342 341 341 341 340 340 340 339 338 337 337 336
367 368 368 370 373 373 373 373 373 373 374 374 373 374 373 371 372 372 372 372 373 372 372 371 371 369 368 366 366 365 365 366 366 366 366 366 366 366 366 366 366 365 365 365 366 365 365 364 363 363 363 362 362 362 363 363 362 361 360 359 357 356 355 353 352 351 349 348 347 345 344 344 343 342 341 341 341 341 340 339 338 337 336 336 335
369 370 370 371 371 371 372 372 372 373 372 372 373 373 372 372 372 372 372 372 372 372 372 371 371 370 369 368 365 365 364 364 364 366 367 365 364 363 362 363 363 363 362 362 364 364 363 363 363 363 362 362 362 361 361 362 362 361 360 359 357 355 354 354 352 351 350 348 346 346 345 344 343 343 341 341 341 341 340 338 337 336 335 335 335
371 371 371 372 370 369 369 370 371 371 370 371 373 372 372 371 371 371 373 372 372 372 370 370 370 369 368 368 366 365 365 364 364 362 358 357 357 357 357 358 359 359 359 359 361 362 362 362 362 362 361 362 362 362 361 361 360 360 360 358 356 354 354 353 353 351 350 348 347 346 345 344 343 342 341 340 340 341 340 337 337 336 335 336 335
372 372 371 371 369 368 368 368 369 370 370 370 371 372 371 370 371 372 372 370 370 370 369 369 368 366 366 366 365 366 366 363 356 347 340 338 341 343 344 346 348 350 352 354 355 357 358 360 360 359 359 360 359 360 360 360 359 358 358 356 354 353 353 354 353 352 350 349 348 346 345 344 343 341 340 340 340 339 339 337 337 336 335 335 334
370 370 370 369 369 368 368 369 369 370 368 367 367 368 369 368 368 368 367 368 369 369 368 367 365 363 364 363 362 362 358 349 340 333 330 329 330 331 333 336 338 341 343 344 346 347 349 351 353 354 355 356 355 355 354 354 353 353 354 353 351 351 352 353 353 352 351 349 348 346 345 343 342 341 340 339 339 338 338 336 336 335 334 333 332
368 369 369 368 368 367 367 367 368 368 363 358 358 361 364 364 362 358 358 361 365 366 365 361 358 356 354 351 349 349 344 336 331 330 331 331 332 332 333 334 334 335 335 336 337 338 338 340 344 348 351 352 354 353 351 349 348 347 347 348 348 348 350 352 351 351 351 349 347 345 345 343 341 340 340 339 338 337 337 336 335 334 332 331 330
369 368 368 368 368 367 366 366 367 364 355 349 347 346 347 351 353 352 353 354 356 359 357 351 347 347 343 337 335 336 334 331 332 332 332 333 334 335 336 335 335 335 334 333 332 332 331 332 335 341 346 350 353 353 351 349 348 346 345 345 346 347 349 350 351 351 350 348 346 345 344 342 340 339 339 338 338 337 336 336 335 333 331 330 330
366 364 363 364 366 367 365 365 364 358 350 346 343 339 337 337 339 339 340 341 343 344 341 337 335 335 334 331 330 331 331 331 332 331 331 332 334 335 336 336 336 336 335 332 327 326 328 329 330 334 338 343 348 351 351 350 349 348 347 346 345 346 348 349 350 350 349 347 345 344 343 341 339 338 338 337 337 336 335 335 334 332 331 330 329
361 359 358 358 358 359 359 359 359 355 349 346 342 340 338 338 337 335 332 333 333 332 331 331 331 331 331 332 331 332 332 332 331 330 330 333 335 336 336 335 334 333 333 329 324 321 323 325 327 329 332 335 339 343 347 349 350 350 349 348 346 345 346 348 350 348 347 345 343 342 342 340 338 337 337 336 336 335 334 333 332 331 330 330 329
356 356 356 355 355 355 355 356 355 354 351 348 346 344 342 342 342 339 337 336 336 333 330 331 332 332 332 332 332 333 334 333 332 332 333 334 336 336 335 334 333 331 330 328 324 322 322 323 325 326 328 330 331 334 337 343 347 349 350 349 347 346 346 347 348 346 345 343 341 340 340 339 337 337 336 335 335 333 332 332 331 330 330 329 329
354 354 353 353 353 353 354 354 353 353 351 349 349 349 346 346 347 345 343 345 346 341 337 336 336 334 333 333 334 334 335 334 334 334 334 336 336 336 336 336 334 331 330 327 325 324 324 325 325 325 326 328 329 330 332 336 340 345 348 349 348 347 346 346 346 343 342 342 340 339 339 337 336 336 335 335 333 332 331 331 331 329 329 329 328
352 352 351 351 352 352 352 353 351 351 350 348 348 348 347 346 346 346 346 348 349 346 344 342 340 338 337 336 335 336 335 336 335 335 335 336 336 337 337 337 336 335 333 331 330 329 328 327 326 326 326 327 327 329 330 332 334 339 343 346 347 346 345 345 345 342 340 340 339 337 337 337 335 335 334 333 333 331 331 330 330 329 328 327 327
350 350 349 349 350 350 350 350 349 348 347 346 346 346 346 345 344 343 343 344 344 344 343 343 342 341 339 337 336 335 336 337 337 337 336 335 336 338 337 337 337 337 336 336 336 335 334 333 331 330 329 328 328 329 329 330 331 332 335 339 343 344 343 344 344 341 340 339 338 336 336 335 334 333 333 332 331 330 330 329 329 328 327 327 327
347 347 347 347 346 347 346 346 346 346 345 344 343 343 344 344 343 341 341 341 342 342 342 341 341 341 339 337 336 336 337 338 338 337 336 336 336 338 337 338 339 338 337 337 337 336 337 336 336 335 334 333 332 331 330 330 330 330 331 334 338 340 340 341 341 340 339 338 336 335 334 333 333 333 332 331 331 330 329 329 328 328 327 326 326
345 345 345 345 345 345 345 344 344 344 344 344 343 343 342 342 342 340 340 340 341 341 341 340 340 340 339 338 336 336 338 339 338 337 337 336 336 336 337 338 338 337 337 337 336 336 336 336 336 335 335 335 335 334 333 332 333 333 333 335 336 336 337 338 338 338 337 335 335 334 333 332 332 332 331 331 330 329 329 328 328 327 327 326 325
343 344 344 344 344 344 344 343 344 343 343 343 343 343 342 342 341 341 340 340 341 341 340 339 339 339 339 337 336 336 338 339 338 337 336 336 336 335 335 336 336 336 336 336 336 335 335 335 335 335 335 334 335 335 335 335 334 334 334 334 334 335 336 336 334 334 334 333 333 332 332 331 331 331 330 329 329 329 328 328 328 327 327 326 325
342 342 342 342 343 343 342 342 342 342 342 342 342 341 341 341 340 340 339 340 340 340 339 338 340 339 338 336 335 336 337 339 338 336 336 336 336 335 335 336 335 335 335 335 335 334 334 334 334 334 334 334 334 335 334 334 334 334 333 334 333 333 333 333 333 333 333 332 331 331 331 330 330 330 329 329 328 328 328 328 327 327 325 324 323
342 341 341 341 341 341 341 341 340 340 340 340 339 339 339 339 338 339 338 338 339 339 338 338 340 339 337 336 336 335 337 338 337 336 336 336 336 335 334 335 335 335 335 335 334 334 334 334 333 333 333 333 333 334 334 334 333 333 333 334 334 333 332 332 332 333 332 332 331 331 330 330 329 329 328 328 328 328 327 327 326 325 323 322 322
340 340 340 340 340 339 339 339 339 338 338 337 338 337 337 337 338 338 337 337 337 337 337 337 338 338 337 336 336 336 336 336 336 336 336 335 334 335 334 334 334 335 335 334 334 334 334 334 333 333 333 333 333 333 333 333 333 333 333 333 333 333 332 331 332 332 331 331 331 330 330 329 329 328 328 328 327 327 326 326 326 324 322 322 321
339 339 339 339 339 338 338 337 338 337 337 337 337 337 337 337 337 337 337 336 335 336 337 337 337 338 338 337 336 336 336 335 335 335 335 334 333 334 334 334 335 335 334 334 334 333 333 333 332 332 332 332 332 333 333 332 333 333 333 332 332 332 331 331 331 330 330 330 330 329 329 329 328 328 328 327 327 327 326 326 325 323 322 321 321
340 339 339 339 338 338 337 337 337 336 337 337 337 337 336 337 337 337 337 337 336 336 336 336 336 336 337 337 336 336 336 335 334 334 333 333 332 333 333 334 334 333 333 334 333 333 332 332 332 331 332 332 332 332 333 333 333 332 332 332 331 331 331 331 330 329 329 329 329 329 329 329 329 329 328 327 327 326 325 324 323 322 321 321 320
337 337 337 337 336 336 336 335 335 334 334 335 334 334 334 334 334 334 334 335 335 336 336 336 335 336 336 336 336 336 336 335 334 333 333 333 333 332 333 333 333 332 332 333 332 332 332 331 331 330 331 331 331 331 331 331 332 331 331 330 330 330 330 329 329 329 329 329 329 329 329 329 328 328 327 326 326 326 325 323 321 321 320 320 319
334 334 334 334 334 334 334 333 332 332 331 331 331 331 331 330 330 330 330 330 331 332 333 333 333 333 333 333 334 335 335 335 334 333 333 333 333 333 333 333 332 332 332 331 331 331 331 331 331 330 330 329 329 329 330 330 330 329 329 329 328 328 327 328 329 330 330 330 330 330 329 329 329 328 327 326 325 325 322 321 320 320 319 318 317
331 331 332 331 331 331 331 331 330 329 329 328 327 327 327 327 327 326 326 326 326 326 327 327 328 328 327 328 329 331 332 333 333 333 333 332 333 332 332 332 332 332 332 331 331 331 330 330 329 328 328 327 326 326 327 328 329 329 329 329 328 328 328 329 330 331 330 329 329 329 328 328 328 327 325 324 323 323 321 320 319 319 318 317 316
328 328 328 329 328 329 328 328 328 327 326 325 325 324 323 323 322 322 321 321 321 321 321 321 321 322 322 322 324 326 326 327 328 329 330 331 331 331 331 331 331 332 332 331 330 330 328 328 327 325 325 324 322 323 324 325 325 325 325 325 326 326 327 327 327 326 325 325 326 325 325 324 324 324 322 321 320 320 320 319 318 318 318 316 315
324 323 324 324 325 325 325 325 325 324 324 323 323 321 320 319 319 318 318 317 317 317 317 317 317 317 317 317 319 320 320 321 322 323 324 326 328 329 329 329 329 330 331 330 329 328 327 326 325 324 323 322 321 321 321 321 322 322 323 323 323 323 323 323 323 322 321 321 322 322 322 322 321 321 321 320 320 319 318 318 318 317 317 317 316
321 320 321 321 321 320 320 320 320 321 321 320 320 319 317 316 315 314 314 314 314 314 314 314 314 314 313 314 314 315 315 316 317 317 318 320 323 324 325 325 326 328 329 328 327 327 325 324 323 323 322 321 320 320 319 319 320 320 320 321 321 322 321 321 321 320 319 320 320 320 320 320 320 319 319 319 319 319 318 317 317 317 316 316 316
318 318 318 318 317 317 317 316 316 317 317 317 316 315 314 312 312 311 311 311 310 310 309 310 310 310 310 310 310 310 311 311 312 313 314 315 317 320 322 322 323 324 325 325 325 324 323 323 322 322 322 321 320 319 319 318 318 318 319 319 319 319 319 319 320 320 319 319 318 319 319 319 319 319 318 318 319 318 318 317 317 316 316 316 315
Wind_Speed
38 39 39 38 38 39 39 39 37 35 33 33 32 32 32 30 29 28 27 26 26 27 27 26 26 27 27 27 27 27 27 27 27 27 27 26 25 24 23 25 25 23 22 22 21 21 22 23 22 21 21 21 20 19 19 18 17 18 17 17 17 17 16 14 9 8 9 10 8 7 9 11 12 11 12 13 14 14 14 14 14 15 15 15 16
39 41 41 39 40 40 39 39 39 36 34 34 34 32 31 32 30 28 27 27 27 27 28 29 27 27 27 28 28 28 28 29 28 27 28 28 27 25 24 25 27 26 24 24 24 22 22 23 24 24 22 22 23 21 20 20 19 20 20 19 19 19 18 17 13 11 10 11 12 12 10 9 11 12 12 13 13 12 13 14 14 14 15 14 14
39 41 41 41 41 41 40 39 38 37 35 34 34 33 31 31 31 30 28 28 28 28 28 29 30 29 28 29 30 29 29 30 30 29 29 29 28 27 26 26 27 28 27 26 26 25 24 24 25 25 24 24 24 24 22 22 21 21 22 21 20 19 20 20 17 14 12 11 12 15 14 12 11 11 11 13 14 12 12 13 11 11 11 12 13
37 39 39 39 40 40 39 38 36 36 35 33 33 33 31 30 31 32 31 28 28 29 29 28 30 31 30 29 30 31 30 30 31 30 30 30 30 29 27 27 28 29 29 28 28 28 27 26 26 26 26 26 26 26 25 24 23 23 23 23 22 21 20 21 20 17 13 13 13 14 16 15 14 13 12 12 14 14 13 13 12 12 12 12 12
36 36 37 36 37 39 39 37 36 36 36 34 32 33 32 30 30 32 32 30 28 29 30 30 29 31 32 31 30 31 31 31 31 31 31 31 31 30 29 29 28 29 30 30 30 30 30 29 28 27 28 28 27 28 27 27 25 24 23 24 23 22 20 20 22 21 16 14 14 13 14 15 15 16 16 14 13 15 15 15 15 15 15 15 14
35 35 36 35 36 38 39 38 37 36 36 35 33 33 32 31 30 30 31 32 30 29 30 32 31 31 33 33 32 32 32 33 33 33 32 31 32 31 30 29 29 30 31 31 31 32 32 31 30 29 30 30 29 29 29 28 27 25 24 24 24 23 22 19 20 22 21 17 15 14 14 15 15 15 17 17 16 15 16 17 17 17 16 16 16
35 35 35 35 36 38 39 40 38 36 37 36 33 33 33 32 32 31 31 32 32 30 30 32 33 33 33 34 34 33 34 34 34 35 34 32 32 31 30 29 29 30 31 32 32 32 33 33 32 32 32 32 31 30 30 29 29 27 26 25 24 23 23 21 19 20 21 20 18 17 16 16 17 17 16 17 18 17 17 17 18 19 19 19 19
35 35 34 35 36 38 39 40 39 37 36 37 35 34 33 34 34 33 32 31 31 31 31 31 33 34 34 34 34 34 34 35 35 35 35 33 32 31 31 30 29 30 30 31 32 32 32 33 33 34 34 34 34 32 31 30 29 29 27 26 25 24 24 23 22 20 20 20 19 19 18 17 18 19 17 17 19 21 20 19 18 18 19 21 22
34 33 34 34 35 37 37 37 38 37 36 37 37 36 35 35 35 34 33 32 31 31 31 31 32 33 33 33 33 33 34 35 36 35 35 34 33 32 32 32 31 30 30 30 31 31 31 31 32 34 35 36 36 35 34 33 32 31 30 28 27 26 25 24 24 23 21 20 20 20 20 19 19 20 20 21 22 23 22 21 19 18 18 20 21
34 33 33 34 34 36 37 36 37 37 37 37 38 37 35 34 34 34 34 33 31 31 32 31 31 32 33 33 33 33 34 35 36 37 37 36 35 34 33 33 33 32 31 31 31 31 31 31 31 32 35 36 37 37 36 35 34 34 33 32 31 30 28 26 25 25 24 22 22 21 19 20 22 22 23 24 24 23 22 22 21 19 17 16 16
35 34 33 33 34 35 37 37 36 37 38 36 36 37 36 34 33 34 34 34 33 32 32 32 32 31 32 33 34 34 35 35 37 39 40 40 39 37 35 34 34 34 33 33 32 32 32 32 32 32 35 37 38 38 38 37 37 36 35 35 36 35 33 31 29 28 27 24 24 24 22 22 24 25 25 24 24 23 23 23 22 20 18 15 13
34 34 32 32 33 34 36 36 35 36 37 37 36 37 37 35 34 34 34 35 34 32 32 33 33 32 31 32 34 35 36 37 38 41 43 44 43 41 38 35 35 35 35 35 34 33 33 33 33 33 34 37 39 40 40 40 39 39 39 38 38 39 39 37 35 32 31 28 26 26 26 25 25 27 26 24 24 24 24 23 22 21 20 17 15
31 34 33 33 34 34 34 35 34 35 36 37 37 36 36 36 35 34 34 34 34 34 33 33 34 34 32 31 33 35 37 38 39 42 44 45 46 44 40 37 36 36 37 37 37 36 36 35 35 34 33 35 39 42 43 43 43 43 43 42 41 41 41 41 40 37 35 33 30 30 30 29 27 28 28 25 24 24 24 24 23 21 20 19 18
29 33 34 34 34 34 33 33 34 34 35 36 36 35 36 37 37 35 33 33 34 34 34 33 33 35 35 34 33 34 36 37 39 41 44 45 46 47 44 40 38 37 37 38 38 38 39 37 36 36 34 33 36 41 44 46 47 46 46 45 44 43 42 43 42 40 38 35 33 32 32 31 29 28 27 26 25 24 25 25 24 22 21 22 21
26 30 33 33 33 34 33 32 32 32 33 34 35 35 35 35 35 34 33 33 35 35 35 35 34 35 36 36 35 33 34 37 39 41 43 45 46 48 47 43 39 37 37 38 39 39 39 38 37 37 36 35 36 39 43 46 48 48 48 48 47 44 43 44 45 43 41 38 34 32 32 32 30 27 26 26 26 25 24 24 23 21 20 20 19
24 28 31 32 31 32 32 31 30 30 31 32 33 34 34 33 34 34 33 32 33 34 35 35 35 35 35 36 36 35 34 35 38 41 43 44 45 48 50 46 40 37 37 38 38 38 38 38 38 36 36 37 37 39 42 44 45 47 48 48 46 43 42 45 46 45 44 41 37 33 30 30 30 29 27 25 25 26 23 20 20 19 17 16 16
24 26 30 30 30 30 30 30 30 30 30 31 33 34 33 32 32 33 32 30 29 31 33 34 34 35 34 35 36 37 35 34 36 39 42 43 45 47 50 48 42 40 39 38 36 36 37 38 38 37 37 38 39 40 41 42 43 43 44 45 43 42 42 44 46 47 47 45 41 37 31 28 29 30 29 27 25 25 23 20 19 19 17 14 13
25 25 28 30 31 31 30 30 30 30 30 30 31 31 31 31 31 31 32 31 28 27 28 30 31 32 33 34 35 35 35 35 35 37 39 41 44 47 49 47 43 41 41 39 36 35 35 37 38 39 38 38 40 41 41 43 42 40 41 42 40 41 43 44 43 45 48 47 44 40 36 32 29 28 29 30 29 27 26 23 21 19 17 14 13
25 24 26 30 31 31 30 30 30 30 30 28 27 28 29 28 28 28 29 30 28 27 26 26 28 30 31 32 33 34 34 33 34 36 36 38 41 45 46 44 42 41 40 38 36 35 35 36 37 39 40 40 41 41 41 44 45 42 41 41 39 42 46 45 41 41 44 46 45 43 41 38 34 30 28 28 29 29 28 25 21 19 17 16 16
25 24 24 27 30 30 29 30 29 29 29 28 26 27 27 26 26 26 26 27 28 28 27 26 26 27 28 29 30 32 33 31 31 33 35 36 38 42 43 41 40 40 37 34 34 35 37 37 35 37 39 41 42 42 42 45 48 47 44 42 42 46 46 44 42 40 41 45 47 46 43 41 39 35 31 28 27 29 29 25 23 21 18 16 18
24 24 24 26 27 28 27 28 29 27 27 27 26 26 26 25 25 26 25 25 26 27 27 26 25 25 25 25 26 28 29 29 30 31 33 33 35 39 42 41 39 37 34 33 33 34 36 36 35 36 37 39 42 45 45 46 49 50 48 47 49 49 44 41 41 40 38 41 44 43 41 40 38 37 34 32 30 30 30 29 28 25 20 17 18
25 25 25 25 25 25 25 26 27 26 25 25 25 25 25 25 25 25 25 24 24 25 25 25 24 23 22 23 24 23 24 25 27 30 32 32 33 35 39 41 40 36 33 33 34 34 35 35 35 36 37 38 41 46 48 49 50 52 53 51 50 47 43 39 38 38 37 38 39 40 40 39 37 36 35 35 34 33 32 32 30 27 24 23 21
25 25 25 24 23 24 24 24 25 25 24 25 25 24 24 24 24 24 24 23 22 22 22 21 21 20 20 20 21 20 20 21 23 26 28 29 30 32 36 39 41 40 37 34 34 34 34 33 34 34 36 38 41 44 49 52 52 53 55 54 50 47 43 38 36 37 37 36 37 38 39 39 39 38 37 35 35 36 35 31 30 29 28 26 23
23 23 23 23 22 22 22 23 24 23 23 24 24 22 22 22 22 22 22 21 19 18 18 18 18 18 17 17 17 17 17 16 17 19 21 24 26 28 31 35 39 42 42 40 38 37 36 35 35 35 35 38 41 42 46 51 55 56 56 55 52 48 43 39 37 38 37 36 37 38 38 40 40 40 40 37 34 35 35 31 29 29 29 28 25
20 20 20 20 20 20 20 21 21 21 21 22 22 21 20 20 19 19 19 19 17 15 15 16 16 15 15 14 14 14 14 15 14 13 13 18 24 28 32 35 39 43 44 41 38 37 37 37 39 40 40 40 41 41 42 47 53 58 59 58 55 49 45 42 39 37 37 38 39 38 38 41 41 40 40 38 35 34 34 32 30 30 29 28 26
15 16 16 18 19 19 19 20 20 19 18 19 19 19 19 19 18 17 16 16 15 15 14 13 13 13 13 14 14 15 15 15 10 3 5 5 9 13 18 24 30 36 41 42 41 40 38 37 39 42 43 42 42 43 44 46 50 55 60 61 58 52 47 44 41 39 39 39 39 39 39 40 40 38 38 38 38 37 36 34 34 32 31 31 29
13 13 14 16 17 18 19 19 18 17 17 17 17 17 18 18 17 16 16 16 15 14 13 13 13 13 13 13 12 10 7 3 3 9 12 10 8 7 7 10 14 20 27 33 39 43 44 44 43 44 46 46 45 46 48 48 48 53 59 62 60 55 51 49 46 44 42 40 39 40 39 39 38 38 39 40 40 39 39 38 36 32 29 29 28
12 12 13 15 16 17 18 18 18 17 15 14 14 15 17 17 15 12 11 12 13 13 14 12 10 8 5 3 0 4 8 11 13 14 13 12 10 9 9 9 10 12 15 20 25 30 34 39 43 46 47 47 46 44 45 46 46 50 55 59 59 57 55 52 49 46 45 43 40 38 38 39 39 40 40 40 40 40 41 41 36 30 27 28 28
12 13 14 15 15 15 16 18 19 17 16 16 15 11 10 13 15 14 10 7 8 8 9 8 7 7 8 9 9 10 11 12 13 14 14 15 15 15 15 14 14 15 16 18 22 26 27 29 33 37 40 42 42 41 42 42 42 44 49 54 56 55 53 51 48 46 45 43 40 39 39 39 40 40 40 39 39 40 41 40 37 32 30 31 29
12 11 12 12 14 15 15 15 17 19 23 26 25 24 21 18 16 15 13 10 8 7 9 12 11 10 11 12 12 11 11 11 12 13 15 17 19 20 20 21 21 21 21 20 22 25 27 28 29 31 33 35 37 38 39 39 40 41 44 49 51 51 51 51 50 49 47 44 41 41 41 41 41 41 41 39 37 38 39 39 38 36 33 30 27
12 12 13 12 11 12 12 13 17 22 25 26 26 28 29 26 22 19 16 14 13 12 13 14 14 13 14 14 12 11 11 11 11 13 16 18 20 21 23 24 24 26 26 23 20 21 23 25 28 30 31 33 35 36 36 36 38 40 42 44 46 49 50 51 51 50 48 45 44 44 45 43 42 41 40 38 36 36 37 38 36 34 33 29 26
15 15 16 17 18 17 17 19 20 21 21 21 23 26 26 25 22 21 21 19 18 18 17 16 15 15 14 13 13 12 12 12 13 14 17 19 21 23 24 23 21 21 22 20 18 18 19 20 23 26 29 32 35 37 37 36 36 38 39 39 41 45 49 53 55 54 49 44 43 44 44 44 41 38 36 36 36 34 35 36 34 32 30 27 25
16 15 15 17 19 19 18 18 18 17 17 17 18 20 20 18 16 17 19 20 19 18 17 16 15 14 13 13 14 14 13 13 13 14 16 19 22 24 24 22 18 16 16 16 16 18 20 20 21 24 27 30 33 36 38 39 39 38 39 38 39 43 49 54 55 49 44 42 42 42 43 44 43 40 38 38 37 36 35 35 33 31 28 25 24
16 16 17 17 18 18 18 18 17 16 16 17 16 16 16 15 14 15 15 15 15 15 15 15 14 13 12 12 13 13 13 13 12 13 15 18 20 21 22 20 18 15 15 15 16 19 21 22 25 28 29 30 31 32 34 38 39 39 40 41 42 44 49 52 51 44 42 44 45 45 46 46 45 43 40 39 37 35 34 33 32 31 28 24 23
18 18 18 18 18 18 17 16 16 16 17 17 16 15 15 15 14 13 12 11 11 12 12 12 12 12 12 11 12 13 14 13 12 14 16 17 18 19 19 18 17 16 16 16 18 21 24 26 30 32 33 32 32 32 33 35 36 37 39 41 42 43 45 47 47 46 47 48 46 45 45 45 44 41 39 37 35 33 32 32 31 31 29 26 23
18 17 17 17 17 16 16 15 15 16 17 17 16 15 14 14 15 14 13 11 10 10 10 10 10 10 11 12 13 14 14 13 13 14 15 16 18 18 18 17 17 17 18 19 21 23 25 27 30 33 36 35 35 34 33 33 33 35 38 40 39 39 41 42 42 43 46 48 48 47 45 42 42 41 38 34 33 32 32 31 30 29 28 26 24
16 16 17 17 17 17 17 18 18 18 18 17 16 14 14 14 14 13 12 10 9 8 8 8 8 9 10 13 18 18 13 11 12 14 15 17 18 18 17 17 17 18 19 21 23 25 26 27 29 30 32 34 35 33 31 31 32 34 36 37 33 26 23 27 35 44 48 47 46 47 46 42 41 42 38 33 30 30 30 29 28 27 27 26 24
17 17 17 18 18 17 17 17 18 17 16 15 14 13 12 12 12 12 11 9 8 7 7 8 8 8 8 11 18 18 13 10 11 13 15 17 18 16 16 16 16 17 19 21 23 24 26 27 29 27 24 21 22 22 21 20 18 18 20 22 21 16 8 2 5 19 36 45 46 44 44 43 40 40 38 33 30 30 30 30 29 27 25 23 22
19 19 18 19 18 17 16 15 15 15 14 13 12 11 11 11 11 11 10 8 7 6 6 7 8 8 7 11 16 15 11 9 11 12 13 15 15 14 15 15 16 17 19 21 23 25 25 27 28 26 23 20 16 12 14 16 17 21 22 15 4 7 18 26 27 20 19 33 41 41 41 40 38 38 37 33 30 30 30 29 27 25 24 24 24
17 17 18 18 17 16 15 15 14 13 13 12 11 10 10 10 11 10 9 8 7 6 6 7 8 8 9 13 15 13 10 9 10 10 11 12 13 13 14 15 15 16 17 19 23 25 25 25 26 25 23 23 21 18 21 25 28 32 35 33 28 26 30 39 43 38 33 36 40 41 39 38 36 35 34 31 29 29 29 27 24 22 23 25 25
16 16 17 17 17 16 15 14 13 13 12 11 10 9 10 11 11 10 9 8 8 7 7 8 9 9 11 15 15 12 10 10 10 10 10 11 12 12 13 14 14 14 15 17 21 23 23 23 23 24 23 23 23 21 22 25 29 32 37 39 38 37 37 39 42 41 37 35 36 37 36 36 36 33 31 29 28 28 27 25 20 20 22 24 24
16 16 16 15 15 14 14 13 13 12 11 10 8 7 8 11 12 11 9 8 8 7 8 8 8 10 12 15 13 11 11 11 10 11 11 11 11 11 11 12 13 14 14 15 17 19 20 19 21 23 23 22 22 21 21 23 24 26 31 36 38 36 34 33 34 34 33 31 32 34 34 35 34 32 30 29 27 26 24 22 20 19 21 21 21
18 17 17 16 15 15 14 14 13 12 11 11 13 13 12 12 12 12 11 10 9 9 8 8 8 9 11 12 11 9 10 10 9 10 11 10 10 11 11 11 13 13 13 13 14 15 16 16 19 21 22 21 20 20 20 20 22 24 27 31 33 33 32 30 30 29 29 28 29 30 31 31 30 28 27 26 24 20 19 20 21 21 19 17 19
18 18 17 17 18 18 18 16 15 14 14 15 17 18 17 17 17 16 15 14 13 12 10 9 10 10 10 11 11 10 10 9 8 9 10 9 9 9 10 11 12 13 12 12 13 14 14 16 18 20 20 20 20 19 19 19 20 23 25 27 29 30 30 29 28 28 27 26 26 27 27 26 26 25 25 25 21 16 15 18 20 20 17 16 17
17 16 17 16 16 16 16 15 15 16 16 16 16 17 18 17 17 17 16 14 14 13 12 13 14 13 12 12 12 11 10 9 9 9 9 8 8 9 10 10 10 11 11 11 11 12 13 16 18 19 19 19 19 19 19 18 18 19 20 22 24 25 25 24 23 23 23 23 24 24 23 23 23 22 22 23 21 15 13 15 17 16 14 13 12
17 16 17 17 17 16 15 16 16 16 17 17 17 17 17 17 17 17 17 16 15 14 15 16 17 17 16 16 15 13 10 9 9 10 10 10 10 11 12 11 9 8 8 8 9 10 11 13 15 17 18 18 19 18 17 17 16 16 15 14 16 17 18 18 18 18 18 19 20 20 20 21 20 18 17 20 21 16 11 13 14 12 11 10 10
18 18 18 18 18 18 17 17 17 17 17 17 17 16 15 16 16 16 17 17 17 17 17 18 17 17 17 19 19 18 16 14 12 11 12 13 13 13 14 13 10 8 7 7 7 8 10 12 14 16 17 17 17 17 16 14 14 14 14 13 12 12 12 13 12 11 11 13 14 13 13 14 14 14 13 15 17 15 10 10 10 8 7 8 8
21 21 20 20 19 18 18 17 17 17 17 16 16 16 15 15 15 16 16 17 18 19 19 18 18 18 19 19 20 20 21 20 19 17 16 15 14 13 14 15 13 9 8 9 9 9 10 12 13 15 16 16 16 16 16 15 15 15 16 16 15 15 14 14 13 11 10 10 10 9 9 10 10 11 13 13 13 11 9 7 5 5 8 11 12
24 23 22 21 20 19 18 18 18 18 17 16 16 16 15 15 15 16 16 17 18 19 19 19 19 20 21 21 21 21 22 22 22 22 21 18 16 15 16 17 15 12 10 10 10 10 10 11 11 12 13 14 15 15 16 16 16 16 16 15 14 14 14 14 14 14 13 11 9 8 8 8 8 8 9 9 9 9 8 7 8 10 11 12 14
26 25 24 23 21 20 21 22 22 20 18 17 16 17 16 16 16 16 16 17 18 18 18 18 19 20 22 22 23 23 23 22 22 23 24 23 20 18 18 19 18 16 14 13 11 11 11 11 12 12 12 12 13 13 13 14 14 14 13 12 11 10 10 10 10 11 11 10 9 9 8 6 6 7 5 4 6 8 9 9 11 12 11 9 11
25 25 24 24 23 22 22 23 22 21 20 18 18 18 17 16 16 17 17 18 18 18 18 19 19 19 21 24 25 24 24 24 25 26 27 27 25 23 22 22 22 19 17 16 15 14 14 14 12 11 10 10 11 10 10 10 10 10 9 9 9 9 9 10 9 9 10 9 8 8 7 5 5 5 3 3 9 14 14 10 8 7 7 8 7
Wind_Direction
188 189 190 192 193 194 196 198 199 199 200 200 201 203 204 204 205 206 207 207 207 208 208 204 203 203 205 206 205 204 204 204 205 206 206 208 209 208 209 210 209 208 208 208 209 212 214 213 216 218 215 216 220 220 220 222 221 219 219 221 223 221 220 222 226 238 240 237 226 193 192 206 205 208 215 216 220 227 233 238 239 241 247 253 259
189 190 191 193 194 195 196 198 199 199 200 201 202 203 204 205 206 206 207 208 207 208 209 208 206 204 204 206 207 206 206 206 206 206 208 209 210 210 210 210 210 209 209 209 210 211 214 214 215 216 216 216 218 219 219 219 217 216 217 221 221 220 219 220 221 229 236 233 225 218 214 209 207 212 212 211 220 227 232 239 242 243 245 248 252
190 191 192 193 194 195 196 197 198 199 200 202 203 203 204 205 206 206 207 208 209 209 209 209 208 207 206 206 207 208 207 207 207 207 209 210 210 210 210 211 211 211 210 210 211 211 212 215 215 215 216 216 218 218 217 217 216 214 215 218 220 219 219 219 218 223 231 232 224 221 226 228 220 216 215 215 220 228 234 238 238 239 243 247 250
191 191 193 194 194 194 195 195 195 197 198 200 202 202 203 204 205 207 208 209 210 210 209 209 208 208 208 208 208 209 209 209 209 209 210 211 212 212 211 212 213 213 213 212 211 211 212 214 215 215 214 215 217 217 216 217 218 215 213 215 217 218 218 218 217 220 227 233 230 223 227 233 227 219 219 220 220 225 233 236 234 236 240 247 253
190 190 192 193 192 193 194 194 194 195 196 199 200 201 202 202 204 206 208 209 209 209 209 209 209 208 209 210 210 210 210 210 209 210 211 212 213 214 213 213 214 215 216 216 214 213 213 214 215 214 213 214 216 216 216 217 218 217 214 213 215 216 217 218 217 217 222 230 234 231 229 229 227 225 224 225 227 229 234 238 239 240 243 246 250
190 189 190 191 192 194 194 195 196 195 197 199 201 201 202 202 203 204 205 207 208 208 208 208 209 209 210 211 211 211 211 211 211 212 212 212 213 215 215 215 216 217 218 218 217 215 215 215 215 214 213 213 214 216 216 216 217 218 216 213 213 214 215 217 216 214 218 226 233 236 233 227 224 226 227 227 229 229 230 235 240 244 247 248 246
190 188 190 192 193 195 197 197 198 197 199 201 201 202 203 203 204 203 202 205 207 207 207 207 209 210 211 212 212 212 212 212 213 213 213 213 213 213 214 216 217 218 219 220 219 218 218 218 217 216 215 215 215 215 215 215 216 217 217 215 213 212 212 215 215 211 213 219 227 233 236 231 225 227 229 226 225 228 229 228 231 237 242 244 243
191 189 190 193 194 196 198 199 200 200 201 202 202 203 204 204 205 204 203 203 206 208 207 206 207 209 211 213 213 213 213 213 214 214 214 214 214 213 214 215 217 218 220 221 221 221 221 221 220 219 218 218 218 216 215 214 214 216 217 215 213 211 210 211 213 213 211 213 220 226 232 233 227 225 225 221 220 224 227 226 226 229 235 241 244
192 190 190 194 194 196 198 199 201 202 201 202 202 203 205 205 205 205 204 204 206 209 210 208 206 207 209 212 213 213 214 214 214 215 214 214 215 216 216 216 217 218 219 221 222 223 223 223 221 221 221 221 221 219 217 216 214 214 215 214 212 211 210 209 210 212 212 213 216 219 223 226 224 221 217 217 219 222 225 227 229 231 234 238 240
191 191 192 194 194 194 196 198 200 201 202 202 203 204 205 205 205 206 206 206 207 208 211 212 210 206 206 209 212 213 215 216 215 215 216 216 216 217 217 218 219 219 220 220 222 223 224 224 224 223 221 221 221 221 220 218 218 217 216 213 211 210 209 208 208 209 209 211 213 214 215 218 220 219 217 218 220 221 221 221 225 228 231 233 235
190 193 193 193 194 193 195 197 198 201 203 203 203 204 205 206 207 207 208 209 209 209 210 213 213 210 206 207 210 213 216 217 217 217 217 218 217 217 218 219 219 220 222 222 222 223 224 226 227 227 224 222 221 221 221 220 219 219 219 218 215 212 209 207 207 208 208 210 212 212 213 216 217 218 220 219 218 218 219 219 220 220 219 222 229
189 192 192 191 193 193 194 195 197 200 202 203 203 204 205 206 208 208 209 210 210 210 210 211 214 215 211 207 208 214 217 218 219 219 219 219 219 218 219 219 220 221 223 223 224 224 224 225 227 228 228 225 221 220 220 220 220 220 221 220 219 217 214 212 210 208 208 209 211 211 213 215 216 216 217 216 214 215 216 217 218 216 213 214 221
189 189 190 190 192 194 194 195 196 199 200 202 203 203 204 207 208 209 210 210 210 211 211 211 213 216 216 212 210 213 218 220 220 220 220 221 221 219 219 220 221 222 223 224 225 225 225 225 226 227 230 228 224 221 219 219 220 220 221 221 220 220 218 217 217 214 211 211 211 212 213 214 215 216 216 215 214 212 211 212 215 215 213 213 217
190 187 189 189 190 193 194 195 197 199 199 200 201 202 204 206 208 210 210 210 210 211 212 213 213 214 218 219 217 216 218 220 221 221 222 223 223 221 221 221 222 224 225 225 226 227 227 226 226 227 227 227 225 222 219 219 219 219 219 219 220 220 218 219 220 219 217 215 215 216 216 215 217 219 217 216 214 212 210 210 210 212 216 221 225
194 187 188 189 189 191 192 194 197 198 199 199 200 202 204 206 207 208 210 211 211 212 212 214 215 215 217 220 222 223 221 221 221 222 223 224 224 224 223 223 224 226 227 227 228 229 229 228 229 229 228 227 226 223 220 218 217 217 217 219 220 220 219 220 220 220 219 218 219 220 220 219 221 221 219 218 218 218 219 215 211 212 220 226 228
198 188 187 188 189 189 191 193 196 198 198 198 200 202 204 205 206 207 209 211 213 213 213 215 216 218 219 220 223 227 227 225 223 223 224 225 225 225 225 224 226 228 229 229 230 230 230 230 230 231 230 229 229 227 224 219 216 216 216 217 219 219 220 222 223 222 220 220 221 221 222 222 222 222 220 219 218 219 218 213 210 211 213 217 221
202 190 187 188 188 188 190 192 194 196 197 198 201 202 204 205 205 207 209 211 213 213 214 216 217 219 220 221 223 227 228 228 228 227 226 224 224 224 224 224 225 229 232 233 232 232 232 231 231 232 231 230 230 230 227 221 217 216 216 217 218 218 221 224 224 223 222 222 221 220 220 221 221 221 221 220 218 214 207 200 200 202 203 205 214
203 194 188 188 188 187 189 192 194 196 198 199 200 201 203 205 206 207 209 211 214 215 215 217 219 220 222 223 225 228 229 230 232 232 230 227 224 223 224 223 225 230 234 236 236 237 236 235 233 231 231 231 231 231 228 222 218 216 216 217 217 219 221 222 221 221 222 221 221 220 219 218 218 217 216 217 218 214 206 202 202 200 200 204 214
202 197 191 189 190 190 190 193 194 196 198 198 197 199 203 205 206 208 209 211 216 218 216 217 219 221 224 226 227 230 231 232 234 235 236 232 227 224 223 222 225 230 234 237 239 241 241 241 238 235 233 233 233 231 228 223 219 217 216 215 217 221 222 220 219 219 217 216 217 218 218 218 217 216 214 215 217 217 213 208 204 203 206 210 215
199 198 191 188 190 192 192 193 195 197 199 199 198 200 202 203 204 205 207 211 215 218 219 219 219 220 223 227 229 231 232 233 235 237 238 237 232 227 222 221 226 231 234 237 240 242 243 243 243 241 238 235 234 233 231 225 221 219 217 213 216 222 224 221 219 217 214 213 213 215 216 216 216 217 218 217 216 216 214 208 202 202 209 217 223
194 193 189 187 190 192 194 195 196 197 199 199 200 201 201 202 202 203 205 208 211 215 219 222 223 224 224 225 229 232 232 233 236 238 239 240 237 231 225 224 228 232 235 238 240 243 244 244 244 245 243 239 236 235 234 231 225 222 219 218 221 224 224 222 220 218 215 212 211 211 213 213 212 213 215 215 212 209 208 205 202 203 208 220 232
189 189 188 187 190 193 195 197 196 197 198 197 198 200 201 201 203 203 204 207 210 212 215 219 225 229 229 229 232 234 234 234 235 238 239 241 241 236 231 230 232 233 235 239 241 244 246 246 246 247 246 245 242 238 236 235 230 226 224 225 225 225 223 221 218 215 213 210 207 206 208 208 207 206 207 209 208 205 204 204 205 206 208 217 230
184 186 186 186 189 193 196 196 194 197 198 196 196 197 198 199 201 202 202 205 208 210 212 216 222 228 233 236 236 238 240 241 240 240 241 241 241 240 238 237 235 233 233 237 241 244 248 249 250 250 248 248 248 244 240 237 233 229 228 227 226 225 222 219 215 211 208 206 203 203 204 203 203 203 202 203 203 204 205 205 205 209 211 214 222
177 180 184 187 189 192 195 194 193 194 196 194 193 195 195 197 199 201 202 203 205 208 209 211 217 224 232 238 241 244 248 250 252 253 251 249 248 246 243 242 239 235 233 236 240 244 246 248 250 251 250 249 250 249 245 240 237 234 231 228 226 223 220 216 213 208 205 201 200 201 201 201 201 201 201 199 199 201 204 204 206 212 214 213 214
170 174 179 185 190 192 193 193 190 192 193 191 188 189 191 193 196 199 199 200 203 207 209 211 216 223 232 240 247 251 252 255 263 272 270 261 256 252 247 243 241 236 233 235 240 244 247 249 250 251 251 250 250 251 248 244 240 237 234 229 225 221 218 216 213 207 203 201 200 200 200 200 200 199 199 197 195 194 196 199 203 206 208 208 208
160 165 172 182 190 193 194 193 189 188 188 185 183 185 188 190 193 194 194 197 203 209 212 214 217 222 227 234 240 244 246 248 257 320 13 330 284 272 261 254 250 245 241 241 243 247 250 253 253 253 253 251 249 248 248 247 243 239 235 229 223 220 218 217 214 209 206 205 202 200 200 199 196 194 193 192 190 190 190 192 194 197 199 198 195
153 164 174 183 189 191 190 188 183 179 178 178 179 182 187 190 192 192 193 198 203 207 210 213 218 225 229 231 234 238 239 240 44 44 39 31 20 359 327 298 282 270 262 257 255 255 257 258 258 258 259 259 256 253 251 249 245 239 234 228 223 220 219 218 216 213 211 208 204 200 198 195 190 189 189 188 186 188 189 188 187 189 192 189 185
156 168 179 185 189 189 185 176 171 169 168 168 172 182 191 193 185 179 187 198 201 203 205 205 209 216 219 219 60 60 61 52 39 27 17 11 6 358 348 333 315 299 288 281 274 270 269 268 265 262 262 263 263 259 255 251 244 237 232 227 223 222 221 220 218 215 213 210 205 199 193 189 186 187 187 186 185 187 188 187 185 182 177 174 174
168 175 178 178 179 178 173 169 167 158 136 117 112 118 144 160 151 137 132 148 165 170 161 138 111 90 78 68 63 65 59 40 21 12 7 2 358 353 348 341 326 310 295 286 282 280 279 276 270 264 259 259 258 255 252 248 242 236 230 226 223 222 220 219 218 215 212 208 201 194 189 185 183 183 182 183 185 187 187 185 182 178 173 171 170
164 161 160 163 169 170 166 164 160 144 123 110 101 92 90 99 113 115 111 109 112 115 106 96 90 88 85 79 76 73 58 35 18 10 6 2 360 356 350 342 334 325 315 303 291 284 280 276 271 266 262 259 256 252 248 243 238 235 231 227 223 220 218 217 216 214 210 205 198 191 187 183 181 180 179 179 181 183 184 182 179 176 174 171 169
119 99 91 100 122 133 124 113 116 119 116 110 103 96 91 88 89 92 96 97 98 97 95 92 90 88 86 82 76 65 48 28 15 10 5 1 358 355 349 341 333 327 322 315 300 285 278 274 270 268 267 266 264 262 257 250 243 239 235 230 225 222 219 217 216 213 208 201 194 189 185 182 181 180 178 175 173 174 176 175 173 173 174 172 169
95 88 81 81 86 90 89 88 95 106 113 113 109 105 101 95 90 89 90 91 91 91 91 88 83 76 71 67 60 49 35 20 10 6 2 358 356 354 351 346 339 330 325 317 299 284 278 272 268 267 267 267 267 267 265 260 254 247 243 237 229 224 221 218 216 212 206 198 192 187 183 180 178 176 175 173 168 166 169 170 169 168 169 170 171
88 89 87 86 84 83 84 86 90 98 106 109 110 112 113 113 110 106 101 93 86 83 79 73 67 63 59 56 50 40 25 13 6 3 2 3 4 1 358 358 357 346 333 321 302 290 285 278 270 268 266 265 267 267 265 263 260 255 250 244 236 229 226 222 219 213 203 195 190 185 181 177 173 172 172 171 168 166 167 169 168 164 161 164 169
89 90 90 90 88 85 81 80 81 85 89 90 88 91 99 108 116 122 119 108 95 86 73 57 48 46 47 48 44 33 18 8 6 5 2 3 4 1 357 359 2 354 339 323 304 292 287 281 273 270 267 266 268 268 265 264 263 259 254 249 243 237 231 225 220 211 198 189 186 183 179 174 170 169 168 167 166 166 165 165 165 162 161 165 167
93 92 90 88 88 88 85 81 78 79 82 86 87 87 90 91 90 92 95 95 94 90 76 57 45 39 35 34 32 24 16 11 9 5 1 3 7 7 4 2 1 356 346 332 315 301 292 283 278 276 274 271 271 271 268 267 266 264 262 257 250 242 236 228 219 208 194 185 181 178 174 171 167 164 163 162 162 161 162 163 163 163 165 169 172
105 102 97 93 93 93 90 87 85 83 83 83 83 85 92 93 88 83 79 79 85 86 77 67 59 44 30 21 17 17 20 23 14 1 358 8 17 20 14 5 358 354 348 340 331 322 310 298 291 287 282 276 274 273 271 271 271 269 268 266 261 251 241 231 220 205 190 180 175 170 166 164 161 157 156 158 159 160 162 161 159 160 166 171 175
111 107 102 99 99 97 91 87 85 85 87 90 88 87 87 89 90 89 85 83 84 82 76 71 64 51 34 16 7 9 21 29 15 1 2 14 23 23 14 3 356 354 349 341 337 333 325 318 315 308 298 288 282 278 277 277 277 277 276 274 271 262 245 232 221 207 189 172 163 160 156 153 152 151 150 151 153 155 158 157 156 161 169 173 177
98 101 102 101 99 96 94 92 90 88 89 93 98 100 99 98 99 99 96 92 88 85 84 75 62 54 40 11 1 5 18 26 14 6 8 14 16 14 7 0 358 357 351 343 340 339 336 334 337 338 335 323 307 300 302 302 299 305 303 283 258 232 193 129 242 208 179 156 146 145 145 142 143 146 146 146 147 151 155 158 161 167 174 177 180
92 95 98 96 93 92 92 93 94 95 94 93 93 95 98 102 101 99 96 91 82 77 77 71 64 59 40 14 7 10 17 20 14 9 9 11 10 7 3 2 1 357 351 346 345 348 348 349 351 356 4 12 13 21 33 38 43 43 33 13 316 167 126 99 76 68 103 120 121 124 127 128 134 141 144 146 148 149 154 161 167 173 178 181 182
93 93 94 93 93 92 90 86 84 85 88 91 92 89 90 91 89 87 86 82 78 70 57 57 69 67 40 24 21 17 9 10 15 10 5 7 7 5 4 5 3 359 354 350 352 355 357 360 3 6 15 25 36 53 66 68 70 69 63 55 51 59 81 94 93 86 82 89 99 108 117 124 131 137 143 149 153 155 160 166 171 175 178 177 177
99 100 101 101 98 94 91 91 90 86 86 91 96 99 100 96 90 85 78 69 66 60 43 50 76 75 43 32 35 30 17 15 15 10 7 9 7 7 9 8 5 2 358 355 357 360 2 6 12 16 24 35 42 47 56 65 72 77 77 75 72 69 71 82 93 100 103 105 110 118 125 131 135 139 145 155 163 167 169 172 174 175 174 174 177
98 99 101 101 100 101 102 103 102 98 96 93 87 90 103 104 100 96 89 74 66 58 40 44 81 86 54 40 42 42 37 30 19 14 19 18 8 7 13 13 10 8 4 1 3 5 5 12 23 27 30 40 48 47 49 58 69 77 83 87 89 89 88 90 97 107 113 118 124 129 131 135 141 147 153 160 165 171 177 184 185 177 171 172 179
84 80 76 72 71 76 82 83 84 82 77 66 54 50 59 69 72 73 71 60 56 56 43 38 61 74 55 38 34 40 48 48 33 24 29 27 13 11 16 18 17 16 10 7 12 15 17 25 37 42 43 48 54 53 52 57 66 77 87 94 98 100 103 105 109 114 117 119 124 129 134 140 147 152 157 161 165 171 180 185 183 178 176 176 175
84 81 76 69 64 65 66 66 65 63 61 57 51 46 46 48 47 48 50 48 44 44 42 38 42 48 42 33 30 35 47 58 58 48 43 37 27 24 23 22 23 22 18 15 19 26 35 44 50 54 55 58 63 65 65 64 66 72 80 90 97 102 106 110 114 120 124 126 128 132 138 145 152 157 163 168 173 180 184 178 172 172 177 175 165
86 87 87 82 76 74 72 66 60 56 53 53 49 45 45 47 46 43 44 44 40 37 36 36 37 35 31 27 29 34 42 53 60 56 46 37 33 34 33 31 28 25 23 20 20 26 38 49 56 59 60 60 62 66 69 70 70 72 78 86 93 99 105 110 116 123 131 137 140 142 145 150 156 162 170 177 181 184 181 173 166 160 156 156 157
81 82 84 81 77 76 74 69 64 59 54 52 50 46 45 46 46 42 40 39 37 35 35 35 34 30 23 19 21 27 34 44 52 50 42 36 34 32 29 29 33 37 32 23 20 28 40 50 57 62 64 63 62 64 67 71 75 76 79 87 96 104 114 121 123 126 135 143 147 150 155 159 162 166 174 182 188 186 164 146 144 141 138 150 169
75 74 75 74 72 69 68 69 71 68 61 56 54 51 49 48 47 44 41 38 37 36 35 33 31 27 20 18 19 22 26 34 42 44 41 38 35 32 27 25 31 45 50 42 35 38 46 55 63 66 64 60 61 66 69 72 75 77 80 86 93 104 122 133 132 130 137 146 149 150 156 163 169 172 170 171 178 181 160 126 122 136 156 173 189
67 67 68 69 68 65 61 63 68 70 67 62 59 56 55 53 51 48 45 43 42 40 37 33 30 25 22 22 24 26 28 30 32 34 34 33 29 27 27 28 33 44 56 61 62 61 58 61 67 70 67 65 70 77 83 85 87 88 90 93 96 100 108 117 117 113 121 134 138 137 136 137 145 160 160 147 143 150 146 119 116 170 192 193 198
60 60 60 62 65 63 57 55 59 64 64 63 61 58 56 55 53 50 48 47 46 44 41 38 35 31 29 29 30 31 31 30 28 30 33 34 30 25 24 29 37 48 58 66 73 77 76 75 73 69 70 76 85 91 94 95 98 99 98 99 100 100 102 106 106 103 103 105 107 114 121 118 116 131 142 131 121 130 147 163 188 206 208 199 197
58 58 58 60 62 61 56 52 54 57 60 61 59 56 54 52 50 47 45 44 44 42 40 38 36 34 34 34 34 34 35 34 31 32 36 39 40 38 35 34 38 46 53 62 72 78 78 77 75 69 68 77 91 99 99 99 101 103 105 107 108 108 109 112 113 110 103 95 89 91 97 100 102 108 119 150 171 173 180 194 202 206 211 209 199
59 60 60 61 61 62 60 57 54 54 57 59 58 55 52 49 47 46 45 44 43 41 38 37 36 35 35 37 38 38 41 42 41 40 41 43 46 49 50 47 44 45 48 55 63 69 72 74 74 67 62 72 88 96 95 94 97 103 109 113 116 121 125 125 125 124 115 103 94 89 85 87 106 111 108 202 200 192 196 209 211 202 212 227 223